Home   Weather   Anderson   Past weeks
Flag for USA

Past Weather in Anderson, South Carolina, USA — Yesterday and Last 2 Weeks

Now
90 °F

Sunny.


Feels Like: 97 °F
Forecast: 90 / 73 °F
Wind: 8 mph from West

Location: Anderson County Airport

Current Time: Jul 18, 2019 at 1:40:50 pm

Latest Report: Jul 18, 2019 at 12:56 pm


Visibility: 10 mi

Pressure: 30.00 "Hg

Humidity: 56%

Dew Point: 72 °F

Location of AndersonLocation

Past Weather in Anderson — Graph

°F

Anderson Temperature Yesterday

Maximum temperature yesterday: 95 °F (at 2:56 pm)
Minimum temperature yesterday: 73 °F (at 3:56 am)
Average temperature yesterday: 81 °F

High & Low Weather Summary for the Past Weeks

 TemperatureHumidityPressure
High95 °F (Jul 3, 3:56 pm)97% (Jul 7, 4:56 am)30.15 "Hg (Jul 7, 4:56 am)
Low71 °F (Jul 15, 5:56 am)32% (Jul 3, 5:10 pm)29.79 "Hg (Jul 8, 5:56 pm)
Average81 °F73%30.00 "Hg
* Reported Jul 3 11:56 am — Jul 18 11:56 am, Anderson. Weather by CustomWeather, © 2019

Note: Actual official high and low records may vary slightly from our data, if they occured in-between our weather recording intervals... More about our weather records

Advertising

Anderson Weather History for the Previous 24 Hours

Scroll right to see more
 ConditionsComfort  
Time TempWeatherWind HumidityBarometerVisibility
11:56 am
Thu, Jul 18
89 °FSunny.12 mph57%30.02 "Hg10 mi
10:56 am87 °FSunny.6 mph63%30.02 "Hg10 mi
9:56 am84 °FSunny.7 mph70%30.02 "Hg10 mi
8:56 am81 °FSunny.8 mph77%30.02 "Hg10 mi
7:56 am78 °FSunny.6 mph84%30.02 "Hg10 mi
6:56 am75 °FSunny.5 mph88%30.01 "Hg10 mi
5:56 am74 °FClear.5 mph91%30.01 "Hg10 mi
4:56 am74 °FClear.7 mph91%29.98 "Hg10 mi
3:56 am75 °FClear.5 mph88%29.98 "Hg10 mi
2:56 am76 °FClear.7 mph85%30.00 "Hg10 mi
1:56 am76 °FClear.No wind88%30.01 "Hg10 mi
12:56 am77 °FClear.6 mph85%30.02 "Hg10 mi
11:56 pm
Wed, Jul 17
77 °FPassing clouds.8 mph85%30.03 "Hg10 mi
10:56 pm77 °FPassing clouds.6 mph85%30.04 "Hg10 mi
9:56 pm79 °FClear.6 mph79%30.03 "Hg10 mi
8:56 pm79 °FClear.6 mph79%30.01 "Hg10 mi
7:56 pm80 °FSunny.No wind71%29.99 "Hg10 mi
6:56 pm80 °FSunny.7 mph67%30.02 "Hg10 mi
5:56 pm81 °FPassing clouds.6 mph65%30.03 "Hg10 mi
4:56 pm82 °FSunny.9 mph60%30.03 "Hg10 mi
3:56 pm93 °FPassing clouds.20 mph41%30.05 "Hg10 mi
2:56 pm95 °FSunny.13 mph41%30.03 "Hg10 mi
1:56 pm94 °FPassing clouds.15 mph44%30.05 "Hg10 mi
Weather by CustomWeather, © 2019

See weather overview